EW6584 Weather Reports


Display with metric or nautical units.
time (UTC)temp
F
wind
direction
speed
MPH
gust
MPH
rain 1hr
in
rain 24hr
in
rain mn
in
humidity
%
barometer
mb
20260902230104 59 103 1.0 4.0 0.05 0.13 0.12 92 1003.8
20260902224507 59 114 2.0 6.0 0.06 0.12 0.11 91 1003.8
20260902223024 59 170 0.0 5.0 0.04 0.10 0.09 91 1003.9
20260902221505 60 191 1.0 7.0 0.03 0.08 0.07 89 1003.9
20260902220035 59 180 3.0 6.0 0.03 0.08 0.07 89 1003.8
20260902214519 60 193 2.0 6.0 0.02 0.06 0.05 87 1004.1
20260902213017 60 171 2.0 6.0 0.03 0.06 0.05 86 1004.1
20260902211505 60 201 2.0 9.0 0.03 0.05 0.04 84 1004.1
20260902210043 61 218 3.0 10.0 0.03 0.05 0.04 83 1004.0
20260902204539 61 197 3.0 8.0 0.02 0.04 0.03 80 1004.0
20260902203053 62 193 6.0 12.0 0.01 0.03 0.02 76 1004.1
20260902201528 63 187 6.0 15.0 0.00 0.02 0.01 74 1004.1
20260902200053 64 221 6.0 20.0 0.00 0.02 0.01 73 1004.3
20260902194504 63 225 7.0 12.0 0.01 0.02 0.01 76 1004.4
20260902193026 62 182 4.0 8.0 0.01 0.02 0.01 79 1004.5
20260902191627 62 207 3.0 11.0 0.01 0.02 0.01 80 1004.6
20260902183106 67 172 6.0 11.0 0.00 0.01 0.00 60 1004.5
20260902183001 67 231 5.0 11.0 0.00 0.01 0.00 59 1004.5
20260902181556 67 214 4.0 9.0 0.00 0.01 0.00 61 1004.6
20260902180036 66 182 4.0 10.0 0.00 0.01 0.00 64 1004.8
20260902174554 65 179 2.0 7.0 0.00 0.01 0.00 67 1004.9
20260902173051 64 189 2.0 5.0 0.00 0.01 0.00 67 1005.1
20260902171557 64 182 2.0 7.0 0.00 0.01 0.00 68 1005.3
20260902170028 63 174 2.0 5.0 0.00 0.01 0.00 71 1005.4
20260902164549 63 173 3.0 6.0 0.00 0.01 0.00 71 1005.6
20260902163008 63 181 0.0 3.0 0.00 0.01 0.00 74 1005.8
20260902161517 63 180 1.0 5.0 0.00 0.01 0.00 74 1005.9
20260902160009 62 184 2.0 6.0 0.00 0.01 0.00 74 1005.9
20260902154547 62 168 3.0 6.0 0.00 0.01 0.00 76 1006.1
20260902153054 62 177 1.0 4.0 0.00 0.01 0.00 78 1006.3
20260902151508 61 177 0.0 2.0 0.00 0.01 0.00 81 1006.4
20260902150020 60 177 0.0 2.0 0.00 0.01 0.00 84 1006.6
20260902144602 59 177 0.0 2.0 0.00 0.01 0.00 84 1006.8
20260902144502 59 177 1.0 2.0 0.00 0.01 0.00 84 1006.8
20260902143010 59 177 0.0 0.0 0.00 0.01 0.00 84 1006.9
20260902141522 59 177 0.0 2.0 0.00 0.01 0.00 84 1007.0
20260902140011 59 177 0.0 2.0 0.00 0.01 0.00 83 1007.1
20260902134548 59 179 1.0 5.0 0.00 0.01 0.00 82 1007.0
20260902133045 59 224 3.0 8.0 0.00 0.01 0.00 84 1007.0
20260902131521 58 178 1.0 4.0 0.00 0.01 0.00 87 1007.1
20260902130002 57 178 1.0 4.0 0.00 0.01 0.00 88 1007.3
20260902124535 58 178 0.0 1.0 0.00 0.01 0.00 87 1007.5
20260902123029 59 178 0.0 1.0 0.00 0.01 0.00 86 1007.5
20260902121512 59 178 0.0 2.0 0.00 0.01 0.00 85 1007.6
20260902120054 60 178 1.0 5.0 0.00 0.01 0.00 85 1007.7
20260902114544 59 172 1.0 7.0 0.00 0.01 0.00 85 1007.9
20260902113053 59 191 1.0 3.0 0.00 0.01 0.00 87 1007.9
20260902111543 59 191 0.0 1.0 0.00 0.01 0.00 86 1008.0
20260902110056 60 191 0.0 2.0 0.00 0.01 0.00 85 1008.0
20260902104556 60 191 1.0 4.0 0.00 0.01 0.00 85 1008.1
20260902103039 60 189 0.0 5.0 0.00 0.01 0.00 85 1008.3
20260902101518 60 181 2.0 4.0 0.00 0.01 0.00 85 1008.5
20260902100036 60 187 4.0 9.0 0.00 0.01 0.00 86 1008.5
20260902094549 60 174 1.0 5.0 0.00 0.01 0.00 88 1008.6
20260902093003 60 172 1.0 3.0 0.00 0.01 0.00 88 1008.5
20260902091604 60 170 0.0 3.0 0.00 0.01 0.00 89 1008.6
20260902090041 60 170 0.0 1.0 0.00 0.01 0.00 89 1008.8
20260902084516 60 170 0.0 3.0 0.00 0.01 0.00 89 1008.9
20260902083058 60 170 0.0 2.0 0.00 0.01 0.00 90 1009.1
20260902081507 60 170 0.0 4.0 0.00 0.01 0.00 89 1009.2
20260902080022 60 170 0.0 2.0 0.00 0.01 0.00 89 1009.3
20260902074540 61 169 0.0 2.0 0.00 0.01 0.00 88 1009.3
20260902073049 61 170 0.0 3.0 0.00 0.01 0.00 88 1009.3
20260902071507 61 170 0.0 5.0 0.00 0.01 0.00 88 1009.4
20260902070051 61 168 1.0 4.0 0.00 0.01 0.00 88 1009.4
20260902064508 61 168 0.0 3.0 0.00 0.01 0.01 87 1009.4
20260902063102 61 183 2.0 5.0 0.00 0.01 0.01 86 1009.6
20260902061510 62 221 2.0 6.0 0.00 0.01 0.01 86 1009.5
20260902054542 61 208 2.0 5.0 0.00 0.01 0.01 87 1009.7
20260902053101 61 208 3.0 5.0 0.00 0.01 0.01 87 1009.8
20260902053004 61 208 3.0 5.0 0.00 0.01 0.01 87 1009.8
20260902051514 62 218 1.0 4.0 0.00 0.01 0.01 87 1009.8
20260902050026 62 210 3.0 6.0 0.00 0.01 0.01 87 1009.9
20260902044540 62 207 3.0 8.0 0.00 0.01 0.01 87 1009.9
20260902043059 61 199 2.0 5.0 0.00 0.01 0.01 87 1009.9
20260902041552 61 192 1.0 6.0 0.00 0.01 0.01 87 1009.9
20260902040100 61 184 2.0 5.0 0.00 0.01 0.01 88 1009.9
20260902040007 61 184 2.0 5.0 0.00 0.01 0.01 88 1009.9
20260902034514 61 191 3.0 6.0 0.00 0.01 0.01 89 1009.9
20260902033024 61 169 3.0 5.0 0.01 0.01 0.01 90 1009.8
20260902031510 61 195 1.0 5.0 0.01 0.01 0.01 91 1009.8
20260902030053 61 184 1.0 5.0 0.01 0.01 0.01 92 1009.7
20260902024510 61 214 1.0 5.0 0.01 0.01 0.01 91 1009.6
20260902023054 61 222 2.0 6.0 0.01 0.01 0.01 89 1009.7
20260902021514 63 266 2.0 9.0 0.00 0.00 0.00 83 1009.7
20260902014551 65 198 6.0 11.0 0.00 0.00 0.00 74 1009.5
20260902013014 65 213 3.0 7.0 0.00 0.00 0.00 76 1009.4
20260902011530 65 205 1.0 9.0 0.00 0.00 0.00 76 1009.3
20260902010031 65 241 3.0 12.0 0.00 0.00 0.00 75 1009.4
20260902004540 65 182 6.0 10.0 0.00 0.00 0.00 74 1009.4
20260902003022 65 209 7.0 14.0 0.00 0.00 0.00 77 1009.4
20260902001536 64 236 3.0 9.0 0.00 0.00 0.00 78 1009.5
20260902000027 63 247 3.0 9.0 0.00 0.00 0.00 80 1009.5
20260901234503 63 232 3.0 10.0 0.00 0.00 0.00 81 1009.6
20260901233013 65 215 4.0 7.0 0.00 0.00 0.00 79 1009.6
20260901231528 65 248 4.0 9.0 0.00 0.00 0.00 79 1009.5